Location: *
(43.9900°N, 3.4811°E)
Time: 13:23:11
(UTC+00:00)

CZ-4C R/B - Pass Details

Date: 25 August 2019
Orbit: 653 x 1349 km, 63.4° (Epoch: 22 October)

Event Time Altitude Azimuth Distance (km) Brightness Sun altitude
Exits shadow 23:28:18 22° 298° (WNW) 1,722 4.0 -35.2°
Maximum altitude 23:30:06 26° 328° (NNW) 1,621 4.1 -35.3°
Drops below altitude 10° 23:35:15 10° 24° (NNE) 2,705 5.4 -35.3°
Sets 23:38:32 0° 36° (NE) 3,790 6.2 -35.4°
